Powrót do katalogu

ONEWEB-0287

AktywnyŁącznośćPO
NORAD 49077·PAYLOAD·🇬🇧 United Kingdom

Wystrzelony Aug 21, 2021 z Baikonur Cosmodrome

Loading…

Następne Przeloty (najbliższe 24 godziny)

TLE

ŚwieżeSource: CelesTrak SupGP

Epoka: Sep 14, 2026, 13:36 UTC

1 49077C 21075C   26257.56718009  .00001994  00000+0  51428-2 0  2571
2 49077  87.9209 348.1154 0001954 113.7790 358.4344 13.17648207    18

Śledź ONEWEB-0287 w czasie rzeczywistym z AllMySat

Download on the App Store